Погода в Тюмени

Погода в Тюмени : погода сейчас, прогноз погоды и архив. Всё, что Вы хотите узнать о погоде в Тюмени!

Хотите узнать прогноз погоды в Тюмени? Тогда Вам сюда: Погода в Тюмени

Поиск расширенной информации на нашем сайте:

Другие новости

Новости СМИ2

Главная страница сайта

Новости сайта

03.07.2017

Напоминаем, что на нашем специализированном сайте Метеоцентр.Азия вы можете получить высокодетализированные автоматические прогнозы погоды по пунктам России, СНГ и мира в авиационном формате (включающие направление и скорость ветра, видимость, явления погоды, количество и форму облачности, нижнюю и верхнюю границу облачности).


Погода в Тюмени - сегодня

Время (UTC), дата Ветер
(°,м/с) 
Видим.   Явления Облачность Т
(°С)
Тd
(°С)
f(%) Тe
(°С)
Pmin
(гПа)
dP
(гПа)
Po
(мм)
O2
(г/м3)
Тmin Tmax R s Состояние
почвы
21 19.02.18 180 (Ю) 20000 м    10/0 верхняя 
[Ci fib]
-10 -13.7 74 -12  1027.7  -1.1  761  319           
00 20.02.18 190 (Ю) 20000 м    10/0 верхняя 
[Ci sp]
-10.7 -14.3 75 -14  1026.9  -0.8  760  320           
03 20.02.18 180 (Ю) 4000 м    10/0 верхняя 
[Ci sp]
-11.2 -15.8 69 -14  1025.8  -1.2  759  320  -11.2      29  равномерный
сухой снег
100% 
06 20.02.18 170 (Ю) 4000 м    10/0 средняя 
[As trans]
-8.8 -15 61 -12  1024.5  -1.1  758  317           
09 20.02.18 160 (Ю) 4000 м    10/0 средняя 
[As trans]
-6.4 -14 55 -9  1023.2  -1.1  758  314           
12 20.02.18 140 (ЮВ) 4000 м    10/0 средняя 
[Ac As]
-6.2 -13.5 56 -9  1021  -2.2  756  313           
18 20.02.18 140 (ЮВ) 20000 м    4/0 верхняя 
[Ci sp]
-9.5 -15.2 63 -12  1017.5  -1.8  753  316           
21 20.02.18 140 (ЮВ) 20000 м    10/0 верхняя 
[Ci sp]
-10.2 -15.1 67 -12  1016.3  -1.2  752  316           
00 21.02.18 140 (ЮВ) 20000 м    10/0 средняя 
[As op]
-10.8 -15 71 -13  1014.5  -1.7  751  316           
03 21.02.18 130 (ЮВ) 4000 м    9/0 средняя 
[Ac As]
-11.2 -14.5 77 -11  1012.7  -1.8  750  316  -11.2      29  равномерный
сухой снег
100% 
06 21.02.18 120 (ЮВ) 4000 м    10/0 средняя 
[Ac As]
-8.9 -13.1 72 -9  1011.2  -1.3  749  313           
09 21.02.18 280 (З) 4000 м    9/0 средняя, верхняя 
[Ac trans|Ci fib]
-7.9 -13.3 65 -8  1009.6  -1.5  747  311           
12 21.02.18 260 (З) 4000 м  слаб. снег  10/0 средняя 
[As trans]
-8.1 -10.5 83 -8  1009.6  747  311           
15 21.02.18 260 (З) 10 км  слаб. снег  10/0 верхняя 
[Cs]
-8.7 -10.2 89 -10  1010.2  0.5  748  312    -6.7  0.4     
18 21.02.18 270 (З) 10 км  слаб. снег  10/0 средняя, верхняя 
[Ac trans|Cs]
-9.3 -11.8 82 -11  1011.5  1.3  749  313           
21 21.02.18 250 (З) 20000 м  {снег}  ясно 
-13.1 -14.3 91 -15  1013.3  1.6  750  319           
03 22.02.18 220 (ЮЗ) 4000 м  слаб. снег [диам. изморози 2 мм]  10/0 средняя 
[Ac As]
-11.7 -13 90 -14  1014.5  0.4  751  317  -15.5    0.2  29  равномерный
сухой снег
100% 
12 22.02.18 250 (З) 4000 м  слаб. снег{ливн. осадки}  10/0 средняя 
[Ac As]
-8.4 -10.5 85 -8  1014.3  0.3  751  313           
15 22.02.18 240 (ЮЗ) 10 км  слаб. снег  10/0 верхняя 
[Cs]
-9.4 -11.5 85 -9  1014.9  0.5  751  315    -7.7  0.2     
18 22.02.18 тихо ()   10 км  слаб. снег  10/0 верхняя 
[Cs]
-14.3 -15.7 89 -14  1016.4  1.3  752  321           
00 23.02.18 230 (ЮЗ) 20000 м  {снег} [диам. изморози 3 мм]  ясно 
-17 -18.7 87 -17  1018.4  1.2  754  325           
03 23.02.18 230 (ЮЗ) 20000 м  [диам. изморози 4 мм]  ясно 
-18.5 -20.4 85 -19  1019.2  0.7  754  327  -18.5    0.3  30  равномерный
сухой снег
100% 
06 23.02.18 240 (ЮЗ) 4000 м  [диам. изморози 5 мм]  ясно 
-15.8 -17.9 84 -20  1019.6  0.6  755  324  -18.9         
09 23.02.18 220 (ЮЗ) 4000 м  [диам. изморози 0 мм]  3/3 600 м 
[Sc diur, vesp]
-11.7 -16.3 69 -14  1019.5  0.1  755  319           
12 23.02.18 260 (З) 4000 м    ясно 
-11.4 -17.3 62 -11  1019.7  0.2  755  319           
Время (UTC), дата Ветер
(°,м/с) 
Видим.   Явления Облачность Т
(°С)
Тd
(°С)
f(%) Тe
(°С)
Pmin
(гПа)
dP
(гПа)
Po
(мм)
O2
(г/м3)
Тmin Tmax R s Состояние
почвы

Для получения пояснительной информации подведите курсор к названию столбца.

ПОГОДА в Тюмени - архив

Всё, что Вы хотите узнать о погоде в Тюмени - удобно и подробно!

Выберите нужную дату (начиная с 1 января 2015* года) и нажмите кнопку "Найти".
Будут отображены архивные сводки погоды по пункту Тюмень, начиная с указанной даты.


Отображать данные в формате CSV (для использования в таблицах Excel)


Внимание! Наш архив погоды предназначен исключительно для личного некоммерческого использования в познавательных целях. Если Вам необходимы официальные справки о состоянии погоды (для производственных, юридических, коммерческих и т.п. целей), обращайтесь в органы Росгидромета.

*Примечание: данная дата относится к архиву по метеостанциям СССР (Россия, СНГ, Балтия).
Архив по метеостанциям Зарубежной Европы и Азии (кроме Китая) хранится 10 дней, по другим регионам земного шара (Китай, Африка, Америка, Австралия, Океания) - 1 день.

Тюмень - район местоположения метеостанции


Название, широта, долгота, высота метеостанции:
Тюмень 57.1°ш. 65.4°д. 102 м над ур. моря [Российская Федерация]

Дополнительная информация

В oтличие oт бoльшинства пoгoдных сайтoв мы публикуем пoдрoбную метеoинфoрмацию в детальнoм прoфессиoнальнoм фoрмате.

Характеристики температуры и влажнoсти вoздуха измеряются на высoте 2 м в тени вдали oт зданий и деревьев.
Скoрoсть ветра измеряется на высoте 10 м (на урoвне рoста челoвека скoрoсть ветра ниже в 1.5-2 раза). Если метеoстанция нахoдится в гoрoде или в лесу, тo скoрoсть ветра занижена на 2-4 м/с пo сравнению с oткрытым местoм. Скoрoсть ветра над акватoриями крупных рек и oзёр, а также на вершинах хoлмoв на 2-5 м/с выше, чем в oбычных услoвиях.
Атмoсфернoе давление в разных тoчках местнoсти мoжет значительнo oтличаться oт давления на метеoстанции, в зависимoсти oт услoвий рельефа (при пoдъёме на 10 м давление пoнижается примернo на 1 мм рт.ст.).